TIME,DELAY(SENSOR),PRES,T(CTD),SAL,OXYGEN,RAWTEMP,T(OPTODE),TCPHASE,FLUOR,BETA(BETA700),BETA(BETA412),BETA(BETA440),CDOM,C(CSC),ED(ED411.90),ED(ED443.80),ED(ED489.40),ED(ED554.70),LU(LU412.20),LU(LU443.80),LU(LU489.40),LU(LU555.00),COMP,TILTX,TILTX(TILTY),CHECK
1348931615,5806,496.9899902343750000,17.4228992462158200,36.4476013183593750,229.0294036865234400,174.4185943603515600,17.4196891784667970,31.2854003906250000,50,101,96,72,57,13167,2146956580,2147513581,2147269522,2147466788,2147089225,2146953334,2147660004,2147118025,1961,-2,8,19280
1348931732,5805,485.8800048828125000,17.5034008026123050,36.4628982543945300,230.0655059814453000,171.8356933593750000,17.4976196289062500,31.1989097595214840,50,100,94,71,56,13165,2146959021,2147513316,2147268224,2147463542,2147085257,2146954112,2147659117,2147119049,1015,-2,8,39623
1348931847,5804,475.0000000000000000,17.5741004943847660,36.4762992858886700,231.0079040527343800,169.3029937744140600,17.5740394592285160,31.1177501678466800,50,100,96,71,55,13163,2146953490,2147517705,2147269997,2147464411,2147087634,2146950628,2147657115,2147113188,221,-1,8,1001
1348931962,5805,464.0899963378906000,17.6396007537841800,36.4880981445312500,231.5664062500000000,167.0359954833984400,17.6424503326416000,31.0597095489501950,50,101,95,70,55,13167,2146958710,2147516260,2147267766,2147466752,2147086985,2146961865,2147651849,2147113462,2413,-1,9,60704
1348932079,5808,452.9700012207031000,17.7266998291015620,36.5046997070312500,232.9597930908203000,164.1479034423828000,17.7296199798584000,30.9522304534912100,50,104,95,72,56,13164,2146956443,2147511469,2147265499,2147462665,2147086427,2146951981,2147661376,2147119040,1839,-1,8,8261
1348932194,5807,442.0000000000000000,17.7865009307861330,36.5154991149902340,233.9533996582031200,162.2687072753906200,17.7863407135009770,30.8786392211914060,50,100,95,70,55,13163,2146957668,2147513243,2147269156,2147464822,2147085485,2146954331,2147654235,2147123629,606,-1,8,6918
1348932309,5802,430.9800109863281000,17.8624000549316400,36.5298004150390600,234.8910980224609400,159.6992950439453000,17.8639106750488280,30.7988090515136720,50,100,95,72,56,13165,2146956836,2147515245,2147266514,2147463113,2147091264,2146952374,2147654491,2147119808,2870,-1,8,29580
1348932426,5803,419.7999877929687500,17.9167995452880860,36.5400009155273440,236.0225067138672000,158.0449981689453000,17.9138603210449220,30.7221107482910160,50,100,95,72,56,13164,2146957476,2147513627,2147269074,2147465901,2147091721,2146958902,2147652489,2147118281,2463,-2,8,23241
1348932541,5808,409.0000000000000000,17.9570999145507800,36.5452995300293000,236.5218963623047000,156.7239990234375000,17.9537506103515620,30.6806507110595700,50,101,95,70,57,13165,2146957430,2147514870,2147266596,2147463506,2147087908,2146955876,2147655012,2147122212,1772,-1,8,26265
1348932656,5806,398.1199951171875000,17.9967002868652340,36.5514984130859400,236.2023925781250000,155.4613952636718800,17.9918804168701170,30.6789093017578120,50,102,95,70,56,13163,2146958829,2147515565,2147264201,2147459355,2147087341,2146957348,2147654473,2147121654,1309,-2,8,61333
1348932773,5806,387.1600036621094000,18.0345993041992200,36.5569000244140600,236.1528015136718800,154.2160034179687500,18.0294895172119140,30.6648197174072270,50,102,95,71,56,13163,2146956827,2147512246,2147267803,2147462262,2147090304,2146956854,2147652644,2147117732,480,-1,8,25406
1348932888,5810,376.5299987792969000,18.0830001831054700,36.5625000000000000,235.7131042480468800,152.5603942871093800,18.0794906616210940,30.6637592315673830,50,101,96,72,57,13161,2146953234,2147514505,2147263990,2147461824,2147090203,2146957622,2147655570,2147122971,48,-1,8,39618
1348933017,5802,364.6799926757812500,18.1326999664306640,36.5699996948242200,235.3049011230468800,150.8899993896484400,18.1299495697021500,30.6609497070312500,51,102,95,70,56,13162,2146957650,2147516324,2147266285,2147460845,2147086948,2146960585,2147651620,2147128265,2895,-2,8,4121
1348933144,5806,353.2399902343750000,18.1991996765136720,36.5761985778808600,234.7933044433593800,148.7505950927734400,18.1945800781250000,30.6570701599121100,51,104,96,71,56,13161,2146955574,2147517440,2147263177,2147461622,2147090038,2146958043,2147655067,2147124717,1732,-1,8,23444
1348933271,5805,341.9700012207031000,18.2453994750976560,36.5820999145507800,234.4463958740234400,147.2610015869140600,18.2395896911621100,30.6538906097412100,50,102,95,71,56,13159,2146954404,2147511734,2147266331,2147460854,2147090358,2146957403,2147654601,2147124562,567,-2,8,7812
1348933388,5802,331.7099914550781000,18.2891006469726560,36.5859985351562500,233.7304992675781200,145.7696990966797000,18.2846508026123050,30.6685695648193360,50,103,96,72,56,13156,2146958034,2147514331,2147266112,2147458294,2147084434,2146959286,2147649398,2147126573,3392,-1,8,57025
1348933527,5807,319.9100036621094000,18.3444995880126950,36.5923004150390600,233.1490936279297000,143.9848022460937500,18.3385906219482420,30.6730804443359380,51,102,95,71,55,13158,2146955684,2147514861,2147265280,2147460763,2147088868,2146953097,2147651529,2147121334,2706,-2,9,4333
1348933656,5806,309.4899902343750000,18.3932991027832030,36.5960006713867200,232.3388977050781200,142.3170013427734400,18.3889999389648440,30.6900005340576170,50,102,95,70,55,13156,2146957348,2147513554,2147262345,2147461339,2147089014,2146955812,2147653193,2147126153,2464,-2,9,15046
1348933795,5807,298.9800109863281000,18.4687004089355470,36.6012001037597660,230.7808074951172000,139.8294067382812500,18.4641990661621100,30.7328891754150400,50,104,94,71,56,13156,2146959204,2147515008,2147264301,2147459858,2147090953,2146952283,2147653659,2147120228,1963,-1,8,42106
1348933967,5806,286.2600097656250000,18.5694999694824220,36.6052017211914060,228.9548034667968800,136.4550018310547000,18.5662307739257800,30.7779903411865230,50,102,95,71,56,13155,2146958665,2147515510,2147264310,2147457563,2147086473,2146960630,2147660214,2147126025,1755,-1,8,51148
1348934094,5804,274.8399963378906000,18.6844005584716800,36.6110992431640600,228.1374969482422000,132.4698028564453000,18.6867599487304700,30.7652797698974600,50,101,95,70,57,13155,2146956260,2147513243,2147262619,2147455542,2147090678,2146960576,2147659648,2147125796,1521,-1,8,39136
1348934209,5807,264.2200012207031000,18.8181991577148440,36.6170005798339840,227.1728973388672000,128.2996978759765600,18.8129196166992200,30.7577800750732420,50,103,95,72,55,13158,2146956434,2147511890,2147264137,2147459218,2147089974,2146964617,2147662628,2147128128,959,-1,8,32887
1348934326,5805,253.2299957275390600,18.9582004547119140,36.6147994995117200,227.9380035400390600,123.4560012817382800,18.9595203399658200,30.6555595397949220,51,103,94,71,56,13160,2146956982,2147517193,2147264448,2147457627,2147090212,2146964342,2147665499,2147128804,760,-1,8,10322
1348934441,5809,242.4799957275390600,19.0923004150390620,36.6067008972168000,232.6343994140625000,119.3965988159179700,19.0824298858642580,30.3718395233154300,50,100,95,71,57,13161,2146956388,2147518811,2147264539,2147457408,2147088722,2146969874,2147675821,2147126482,1349,-1,9,51403
1348934570,5806,230.4199981689453000,19.1371002197265620,36.5901985168457000,238.1705932617187500,117.3930969238281200,19.1431102752685550,30.0816593170166000,50,99,95,70,55,13161,2146955876,2147515529,2147262628,2147455661,2147092297,2146978678,2147682112,2147129005,3204,-2,9,46967
1348934685,5810,219.5800018310547000,19.1844005584716800,36.5792999267578100,243.1289062500000000,116.0278015136718800,19.1844692230224600,29.8340492248535160,50,100,95,71,56,13160,2146956708,2147516763,2147265792,2147453824,2147090925,2146990848,2147694747,2147129197,2678,-2,9,41088
1348934812,5808,207.7899932861328000,19.2516002655029300,36.5788993835449200,245.5117034912109400,113.8628997802734400,19.2500495910644530,29.6977291107177730,50,100,94,72,55,13160,2146955209,2147515026,2147266358,2147452745,2147092534,2147005412,2147715629,2147129901,1681,-2,9,30369
1348934935,5805,197.1699981689453000,19.2674007415771500,36.5661010742187500,247.9085998535156200,113.1669006347656200,19.2711391448974600,29.5807590484619140,50,102,96,71,55,13155,2146960164,2147518683,2147269449,2147454409,2147094107,2147020315,2147747730,2147133741,957,-1,9,12831
1348934990,5807,192.6999969482422000,19.2978000640869140,36.5685997009277340,248.4212036132812500,112.2404022216796900,19.2992191314697270,29.5456790924072270,50,101,94,71,54,13156,2146957248,2147518171,2147268425,2147455424,2147092050,2147034395,2147760073,2147132772,787,-2,9,27376
1348935045,5807,188.2400054931640600,19.3300991058349600,36.5712013244628900,248.6649017333984400,111.3347015380859400,19.3266696929931640,29.5231304168701170,51,103,95,71,55,13156,2146955382,2147515986,2147268388,2147453001,2147103021,2147048521,2147779574,2147136886,432,-2,8,25714
1348935100,5806,183.8399963378906200,19.3722000122070300,36.5758018493652340,248.4414978027343800,109.9568023681640600,19.3684291839599600,29.5153999328613280,52,101,96,72,55,13157,2146956708,2147521792,2147267666,2147453933,2147090294,2147062134,2147799113,2147136155,398,-2,8,7259
1348935155,5804,179.4700012207031200,19.4116992950439450,36.5793991088867200,248.0989074707031200,108.6488037109375000,19.4080791473388670,29.5135898590087900,52,102,95,71,55,13157,2146955702,2147521462,2147268434,2147455259,2147096448,2147075785,2147814820,2147134829,512,-2,8,18624
1348935234,5807,173.8300018310547000,19.4377002716064450,36.5816001892089840,248.1793060302734400,107.7963027954101600,19.4339199066162100,29.4990501403808600,53,102,96,70,54,13154,2146957769,2147524205,2147266477,2147451977,2147105865,2147096941,2147843264,2147136000,550,-2,8,11483
1348935289,5806,170.4700012207031200,19.4587993621826170,36.5840988159179700,247.9154052734375000,107.1141967773437500,19.4545993804931640,29.5021400451660160,53,102,95,71,55,13152,2146954084,2147521572,2147271542,2147453842,2147105691,2147112219,2147855945,2147138989,101,-2,9,37384
1348935356,5803,166.5399932861328000,19.4850997924804700,36.5856018066406250,247.9306030273437500,106.2389984130859400,19.4811401367187500,29.4900608062744140,53,102,95,70,55,13154,2146954706,2147521499,2147268562,2147454409,2147106358,2147132580,2147884251,2147139072,3195,-2,9,51015
1348935435,5804,162.0299987792968800,19.5366992950439450,36.5877990722656250,247.3753051757812500,104.5306015014648400,19.5329399108886720,29.4927501678466800,55,102,95,72,55,13150,2146954313,2147520274,2147272064,2147452873,2147120795,2147166875,2147923995,2147143542,3037,-2,9,8142
1348935502,5805,158.3000030517578000,19.5872001647949220,36.5933990478515600,247.1174011230468800,102.8862991333007800,19.5828094482421880,29.4832992553710940,57,102,95,72,55,13150,2146956763,2147523218,2147274806,2147453997,2147128411,2147196470,2147965366,2147149504,2906,-2,9,3390
1348935571,5806,154.5099945068359400,19.6392002105712900,36.6044998168945300,245.9096069335937500,101.2604980468750000,19.6321296691894530,29.5164699554443360,58,105,96,71,54,13148,2146958555,2147527104,2147273846,2147452470,2147137380,2147233298,2148014985,2147151506,2580,-2,9,38220
1348935650,5804,150.0899963378906200,19.6772994995117200,36.6096992492675800,244.8444976806640600,99.9629211425781200,19.6714992523193360,29.5476398468017580,60,106,95,71,55,13147,2146956900,2147525732,2147277897,2147452717,2147140964,2147290450,2148086409,2147154788,2237,-2,9,44731
1348935717,5804,146.4400024414062500,19.7721004486084000,36.6203994750976560,243.4183044433593800,96.9253463745117200,19.7636795043945300,29.5730400085449220,62,106,95,72,56,13141,2146958354,2147529846,2147276324,2147449069,2147164553,2147341577,2148149723,2147158253,2199,-2,9,28630
1348935796,5804,142.1300048828125000,19.8519001007080080,36.6301002502441400,242.6687011718750000,94.4627304077148400,19.8384399414062500,29.5754909515380860,65,109,96,72,56,13144,2146959094,2147527277,2147285577,2147451492,2147184210,2147405165,2148223707,2147163081,2356,-2,9,62255
1348935865,5801,138.3399963378906200,19.8950996398925780,36.6310997009277340,242.4485931396484400,92.8419570922851600,19.8876495361328120,29.5647296905517580,68,108,96,74,56,13138,2146959241,2147532013,2147288557,2147450797,2147208694,2147478098,2148307492,2147169435,2362,-2,9,21095
1348935932,5805,134.6300048828125000,19.9237003326416000,36.6249008178710940,243.8271026611328000,91.6648406982421900,19.9234008789062500,29.4865894317626950,72,113,96,72,55,13131,2146963136,2147535030,2147292059,2147452598,2147237266,2147556836,2148390884,2147176466,2303,-1,9,38921
1348935987,5803,131.5899963378906200,20.0161991119384770,36.6375007629394500,244.3905944824218800,88.7277832031250000,20.0126094818115230,29.4233798980712900,75,115,98,72,56,13127,2146960146,2147540315,2147295314,2147451346,2147265984,2147625590,2148470976,2147181860,2291,-2,9,40420
1348936066,5804,127.4599990844726600,20.1025009155273440,36.6346015930175800,246.5126037597656200,86.0519409179687500,20.0939102172851560,29.2938098907470700,85,115,98,72,55,13109,2146964498,2147541156,2147301924,2147453504,2147314441,2147733293,2148592292,2147194413,2306,-2,9,26246
1348936145,5806,123.5800018310546900,20.2133007049560550,36.6427001953125000,246.2411956787109400,82.0572586059570300,20.2153396606445300,29.2546005249023440,88,118,98,73,56,13111,2146965604,2147546678,2147308160,2147451510,2147366646,2147853805,2148719012,2147202267,1976,-2,9,11765
1348936226,5805,119.7399978637695300,20.3180999755859380,36.6529998779296900,246.5101928710937500,78.9469070434570300,20.3099193572998050,29.2028999328613280,95,117,97,72,56,13105,2146965824,2147551268,2147313115,2147449435,2147437092,2148002386,2148883858,2147215872,2404,-2,9,35467
1348936317,5805,115.7200012207031200,20.4018993377685550,36.6585998535156250,245.2312927246093800,76.3231964111328100,20.3897399902343750,29.2265396118164060,104,119,98,72,56,13097,2146974939,2147557046,2147324544,2147450322,2147536000,2148222573,2149114980,2147236845,2524,-2,9,50423
1348936420,5807,111.5999984741211000,20.4554004669189450,36.6491012573242200,245.3141937255859400,74.2945785522461000,20.4514694213867200,29.1969795227050780,118,125,99,73,56,13084,2146980534,2147570212,2147342976,2147450313,2147720777,2148590656,2149530980,2147269504,2518,-2,9,39228
1348936525,5804,107.9700012207031200,20.6439990997314450,36.6668014526367200,244.6392059326172000,68.6521835327148400,20.6232490539550780,29.1551895141601560,129,126,100,73,56,13067,2146988041,2147583232,2147367158,2147451008,2147916608,2148965037,2149963099,2147307629,2270,-2,9,35910
1348936676,5805,104.2600021362304700,20.7280998229980470,36.6659011840820300,245.1797027587890600,65.4350280761718800,20.7212505340576170,29.0899391174316400,149,130,100,73,56,13055,2146997668,2147592173,2147371849,2147449142,2148077805,2149136320,2150103094,2147329389,2375,-2,9,63591
1348936859,5804,99.7200012207031200,20.8589000701904300,36.6631011962890600,248.3739013671875000,61.3493690490722660,20.8457794189453120,28.8963508605957030,147,126,97,73,55,13047,2147017938,2147621952,2147410230,2147451885,2148534180,2149881133,2150855753,2147405220,2279,-2,9,14804
1348936914,5803,97.7500000000000000,20.8710994720459000,36.6489982604980500,257.3063049316406000,60.2943992614746100,20.8779392242431640,28.4983291625976560,142,122,98,73,55,13050,2147031771,2147647634,2147436580,2147453147,2148876662,2150464137,2151456704,2147455350,2548,-2,9,24759
1348936969,5801,95.9300003051757800,21.0997009277343750,36.6581001281738300,265.7889099121094000,53.6759910583496100,21.0798301696777340,28.0650291442871100,109,125,99,72,53,13047,2147045065,2147667584,2147463250,2147453019,2149198262,2150973458,2151940836,2147507328,2866,-2,9,48442
1348937036,5806,94.3700027465820300,21.1765995025634770,36.6637001037597660,272.2661132812500000,50.8125991821289060,21.1672401428222660,27.7709407806396500,91,125,100,73,54,13071,2147061961,2147689819,2147489609,2147458614,2149492617,2151416576,2152305737,2147540918,8,-1,9,29745
1348937138,5806,91.7099990844726600,21.3321990966796880,36.6484985351562500,277.1325988769531000,45.5070381164550800,21.3292903900146500,27.5160408020019530,90,123,99,75,53,13062,2147093869,2147734098,2147533019,2147456009,2150168301,2152406043,2153101869,2147623725,535,-1,9,10906
1348937193,5807,89.4400024414062500,21.4904003143310550,36.6460990905761700,279.7029113769531000,40.2781906127929700,21.4891300201416000,27.3536491394042970,87,121,100,74,55,13069,2147119140,2147766784,2147564416,2147456310,2150763675,2153250779,2153788068,2147688420,379,-1,9,22792
1348937248,5803,87.0999984741211000,21.6033992767334000,36.6579017639160160,280.9096984863281000,37.0553283691406250,21.5877094268798830,27.2685604095459000,86,120,99,73,54,13057,2147147264,2147801508,2147589248,2147461787,2151369947,2154087323,2154418660,2147752128,3480,-2,9,57823
1348937303,5803,84.7699966430664000,21.8062992095947270,36.6642990112304700,280.5445861816406000,30.2105293273925780,21.7972507476806640,27.1987800598144530,83,120,99,74,53,13056,2147174884,2147840100,2147623149,2147460361,2152034157,2154974281,2155093193,2147821750,3361,-1,9,29764
1348937358,5804,82.7200012207031200,21.9655990600585940,36.6651992797851560,280.9338989257812500,26.2712192535400400,21.9179401397705080,27.1361999511718750,82,123,99,73,53,13055,2147204662,2147870628,2147648182,2147463552,2152608758,2155722944,2155657865,2147874660,2974,-2,9,8222
1348937413,5806,81.3300018310546900,22.0414009094238280,36.6693000793457000,280.5682067871094000,23.0840606689453120,22.0156497955322270,27.1111602783203120,84,123,99,74,52,13056,2147223478,2147895332,2147669961,2147463542,2153085769,2156359314,2156138715,2147924288,2788,-2,9,63413
1348937504,5804,78.7500000000000000,22.1396007537841800,36.6665000915527340,280.8344116210937500,19.3486194610595700,22.1302394866943360,27.0558204650878900,81,120,101,75,53,13055,2147282221,2147962825,2147726665,2147468004,2154403328,2158023177,2157327094,2148048228,2344,-2,9,44756
1348937559,5803,76.5599975585937500,22.3829994201660160,36.6808013916015600,280.0004882812500000,11.2003202438354500,22.3804397583007800,26.9882793426513670,79,122,100,74,52,13052,2147333412,2148022308,2147777590,2147469046,2155551396,2159443291,2158340745,2148139483,2518,-1,9,11989
1348937614,5805,74.6100006103515600,22.6494007110595700,36.7046012878418000,280.1542968750000000,3.2092809677124023,22.6261692047119140,26.8859405517578120,78,123,99,74,52,13042,2147386432,2148074870,2147821997,2147466944,2156643510,2160754505,2159251657,2148227190,2333,-2,9,26017
1348937669,5805,73.1299972534179700,22.8038005828857420,36.7313003540039060,280.7479858398437500,-1.6792860031127930,22.7766799926757800,26.8045997619628900,78,123,100,74,51,13051,2147425947,2148121728,2147852022,2147468681,2157502144,2161719872,2159889801,2148292699,2230,-2,9,51883
1348937748,5805,71.4400024414062500,22.9424991607666000,36.7476997375488300,280.7969970703125000,-6.1410250663757320,22.9141597747802730,26.7489204406738280,76,121,100,75,52,13054,2147479323,2148170066,2147891977,2147473344,2158650093,2162994121,2160690258,2148374427,1913,-1,9,22918
1348937839,5805,68.9599990844726600,23.1390991210937500,36.7686996459960940,281.2777099609375000,-13.1049203872680660,23.1289806365966800,26.6473197937011720,75,124,102,74,52,13048,2147595629,2148293330,2147993316,2147479378,2161177773,2165824301,2162545024,2148564918,1118,-2,9,18663
1348937894,5805,67.0199966430664000,23.2696990966796880,36.7549018859863300,281.1679992675781000,-17.4102897644042970,23.2619400024414060,26.5995998382568360,73,122,100,74,53,13045,2147690002,2148387693,2148059117,2147483483,2163178148,2168043410,2163974070,2148708324,1150,-2,9,34448
1348937961,5803,65.1100006103515600,23.4405002593994140,36.7537002563476560,280.6889038085937500,-22.3923892974853500,23.4159393310546880,26.5578193664550780,72,125,101,74,51,13050,2147800018,2148498944,2148140864,2147485257,2165568164,2170684260,2165774994,2148890898,1449,-1,9,47186
1348938028,5805,63.1699981689453100,23.5461006164550780,36.7611007690429700,280.2189025878906000,-25.8729095458984380,23.5236091613769530,26.5336399078369140,71,124,99,74,53,13048,2147898898,2148600384,2148219108,2147490715,2167828918,2173159780,2167388278,2149063442,1449,-2,9,30012
1348938095,5804,61.1300010681152340,23.5645999908447270,36.7621994018554700,280.5968017578125000,-26.9438209533691400,23.5567607879638670,26.5066604614257800,72,122,101,75,51,13043,2148033142,2148738806,2148329316,2147497097,2170903296,2176617673,2169759716,2149324397,1448,-2,9,21372
1348938174,5803,58.2400016784668000,23.7362003326416000,36.7635002136230500,279.9162902832031000,-33.7317695617675800,23.7670307159423830,26.4507408142089840,70,124,101,75,50,13037,2148223222,2148919094,2148465974,2147512640,2175202075,2181081929,2172608539,2149652580,1527,-1,9,41524
1348938229,5805,55.9799995422363300,23.9162998199462900,36.7582015991210940,280.1213073730469000,-38.3574600219726560,23.9104900360107420,26.3878498077392580,71,123,102,76,52,13033,2148404278,2149084918,2148583314,2147519844,2179148946,2185177444,2175230811,2149961161,1529,-2,9,25035
1348938371,5806,53.0699996948242200,24.1364002227783200,36.6949005126953100,279.1459045410156000,-44.9580612182617200,24.1154499053955080,26.3454494476318360,67,122,101,76,51,13034,2148651419,2149321499,2148770322,2147539693,2184744621,2190859108,2178785307,2150365778,926,-2,9,655
1348938404,5806,52.7599983215332000,24.1152000427246100,36.6758995056152340,278.9819946289062500,-44.9763488769531250,24.1160202026367200,26.3513393402099600,68,124,101,74,51,13039,2148694738,2149367204,2148814445,2147547977,2185719076,2191912411,2179535945,2150445440,758,-2,9,48443
1348938544,5807,50.7000007629394500,24.3845005035400400,36.6384010314941400,276.4339904785156000,-53.6809082031250000,24.3867702484130860,26.3430595397949220,67,126,102,73,54,13033,2148995428,2149641161,2148985664,2147558610,2192437942,2198748562,2183654061,2150957174,2988,-2,9,29509
1348938625,5808,48.9000015258789060,24.8393993377685550,36.6548995971679700,273.7417907714844000,-66.9023666381836000,24.7990493774414060,26.2870903015136720,67,125,101,74,52,13027,2149151424,2149790052,2149110436,2147574052,2195753654,2201964443,2185688082,2151215670,128,-2,9,27137
1348938886,5804,46.6699981689453100,25.4491004943847660,36.6040992736816400,269.8465881347656000,-84.5782012939453100,25.3522491455078120,26.2252502441406250,66,122,99,74,51,13024,2149419081,2150017481,2149235456,2147575442,2201492086,2207401984,2188836827,2151625033,1439,-1,8,15582
1348939098,5804,44.9099998474121100,25.5286006927490230,36.5962982177734400,267.7775878906250000,-89.6483230590820300,25.5113697052001950,26.2446708679199220,66,127,102,83,51,13024,2149564653,2150156251,2149343926,2147590107,2204894857,2210871232,2191280539,2152027035,2137,-1,9,62870
1348939454,5807,42.8100013732910160,26.4577007293701170,36.4967002868652340,256.9924011230469000,-118.3828964233398400,26.4171695709228500,26.3277702331542970,65,124,101,75,51,13023,2150035785,2150580800,2149637705,2147619547,2214867318,2220694985,2197277723,2152843565,2946,-2,9,2767
1348939786,5806,40.7900009155273440,26.8451004028320300,36.4900016784668000,251.7790069580078000,-130.6553039550781200,26.8061790466308600,26.3931598663330080,66,121,101,74,54,13023,2150446500,2150944621,2149881179,2147644251,2223955757,2229384530,2202729737,2153645504,1959,-2,9,65172
1348940166,5810,38.9900016784668000,27.4030990600585940,36.4985008239746100,240.1705017089843800,-148.8132019042968800,27.3842391967773440,26.6644191741943360,62,123,99,73,52,13039,2150968292,2151404955,2150175789,2147668717,2235138998,2240204717,2209296073,2154550354,1758,-2,9,24667
1348940402,5806,36.9300003051757800,27.4564990997314450,36.4701004028320300,237.1452026367187500,-151.3087005615234400,27.4639205932617200,26.7661399841308600,60,118,99,75,55,13052,2151963328,2152303616,2150874468,2147800502,2257226797,2261649426,2222494939,2156392722,1121,-2,9,63301